Weerstation Grootegast  Weerstation Grootegast


15 daagse weersverwachting Taranto (IT)

  • Overzicht
  • Per uur
  • 15 dagen
  • Extra
  • Vergelijk
  • Kaarten
  • Dagkaart
  • Meer »
  • Info
  • Statistieken
  • Directe link
    Temp 6h Neerslag Wind  
 06:57     16:24    Daglengte: 9:27 Vandaag
19:00
11°
 
2
 06:58     16:24    Daglengte: 9:26 Morgen
01:00
11°
0.2 mm
3
07:00
12°
0.6 mm
3
13:00
16°
0.5 mm
5
19:00
15°
 
6
 06:59     16:24    Daglengte: 9:25 Donderdag 03 Dec
01:00
15°
1.8 mm
7
warningclass
07:00
15°
13.0 mm
7
warningclass
13:00
16°
11.3 mm
7
19:00
14°
15.6 mm
6
 07:00     16:24    Daglengte: 9:24 Vrijdag 04 Dec
01:00
13°
18.9 mm
3
07:00
11°
17.2 mm
2
13:00
15°
 
3
Locatie info
Region: Puglia
Latitude: 40.4654°N
Longitude: 17.2506°E
17 masl
Postcode: 74121
Temp/Neerslag /Baro Onweer/Dauwpunt
    Temp Baro 1h Neerslag Dauwpunt Wind UV Bewolking  
 06:57     16:24    Daglengte: 9:27 Vandaag
19:00
11°
1015.4 hPa   7.5°
2
Windvlaag: -0.1 m/s
53%
20:00
11°
1015.1 hPa
21%
8.0°
2
Windvlaag: -0.3 m/s
87%
21:00
11°
1015.3 hPa
22%
8.2°
2
Windvlaag: -0.3 m/s
52%
22:00
11°
1015.1 hPa
24%
8.6°
2
Windvlaag: -0.1 m/s
55%
23:00
11°
1014.9 hPa
63%
9.1°
2
Windvlaag: -0.3 m/s
60%
 06:58     16:24    Daglengte: 9:26 Morgen
00:00
12°
1014.6 hPa
69%
9.5°
3
Windvlaag: -0.1 m/s
49%
01:00
11°
1014.3 hPa 0.2 mm
71%
9.4°
3
Windvlaag: -0.1 m/s
42%
02:00
12°
1014.0 hPa 0.3 mm
71%
9.6°
3
Windvlaag: 0.1 m/s
50%
03:00
12°
1013.6 hPa
75%
10.3°
4
Windvlaag: -0.3 m/s
45%
04:00
12°
1013.1 hPa
80%
10.7°
4
Windvlaag: -0.4 m/s
67%
05:00
12°
1012.9 hPa 0.3 mm
79%
10.6°
3
Windvlaag: -0.2 m/s
52%
06:00
12°
1012.9 hPa
76%
10.8°
3
Windvlaag: -0.5 m/s
51%
07:00
12°
1013.0 hPa
77%
10.8°
3
Windvlaag: -0.3 m/s
43%
08:00
14°
1013.3 hPa
75%
11.2°
3
Windvlaag: 0.1 m/s
32%
09:00
15°
1013.4 hPa
71%
11.9°
4
Windvlaag: 2.5 m/s
35%
10:00
15°
1013.5 hPa 0.3 mm
68%
11.7°
5
Windvlaag: 3.8 m/s
63%
11:00
16°
1012.9 hPa 0.3 mm
72%
12.2°
6
Windvlaag: 4.4 m/s
64%
12:00
16°
1012.3 hPa
33%
12.2°
6
Windvlaag: 4.4 m/s
79%
13:00
16°
1011.7 hPa
27%
11.6°
5
Windvlaag: 3.9 m/s
83%
14:00
16°
1011.3 hPa
23%
11.1°
5
Windvlaag: 3.7 m/s
75%
15:00
16°
1011.1 hPa
51%
10.8°
5
Windvlaag: 2.8 m/s
70%
16:00
16°
1011.1 hPa
15%
11.1°
5
Windvlaag: 2.9 m/s
59%
17:00
15°
1011.0 hPa
55%
11.2°
4
Windvlaag: 2.7 m/s
56%
18:00
15°
1010.7 hPa
63%
11.6°
5
Windvlaag: 2.5 m/s
54%
19:00
15°
1010.6 hPa
26%
11.9°
6
Windvlaag: 2.7 m/s
64%
20:00
16°
1010.5 hPa
25%
11.8°
7
Windvlaag: 4.5 m/s
59%
21:00
16°
1010.5 hPa
27%
11.6°
7
Windvlaag: 5.7 m/s
50%
22:00
16°
1010.4 hPa
36%
11.8°
8
Windvlaag: 6.2 m/s
61%
23:00
15°
1010.3 hPa 0.4 mm
37%
11.7°
7
Windvlaag: 6.2 m/s
61%
 06:59     16:24    Daglengte: 9:25 Donderdag 03 Dec
00:00
15°
1009.9 hPa 0.8 mm
37%
12.1°
7
Windvlaag: 6.3 m/s
76%
01:00
15°
1009.6 hPa 0.7 mm
79%
12.5°
7
Windvlaag: 6.9 m/s
78% warningclass
02:00
15°
1009.3 hPa 1.4 mm
78%
13.1°
7
Windvlaag: 6.6 m/s
80% warningclass
03:00
15°
1008.7 hPa 1.6 mm
80%
13.2°
7
Windvlaag: 6.2 m/s
81% warningclass
04:00
15°
1008.3 hPa 2.1 mm
74%
13.3°
7
Windvlaag: 6.2 m/s
81% warningclass
05:00
15°
1008.1 hPa 2.6 mm
82%
13.5°
7
Windvlaag: 6.2 m/s
88% warningclass
06:00
15°
1007.9 hPa 2.4 mm
82%
13.7°
6
Windvlaag: 6 m/s
88% warningclass
07:00
15°
1008.0 hPa 2.9 mm
82%
13.8°
7
Windvlaag: 6.4 m/s
83% warningclass
08:00
15°
1008.0 hPa 2.4 mm
72%
13.6°
6
Windvlaag: 6.4 m/s
81%
09:00
16°
1007.9 hPa 2.7 mm
69%
14.0°
6
Windvlaag: 6.4 m/s
79%
10:00
16°
1007.8 hPa
68%
13.6°
7
Windvlaag: 6.6 m/s
78%
11:00
16°
1007.2 hPa 2.4 mm
74%
13.6°
7
Windvlaag: 6.8 m/s
79%
12:00
16°
1006.4 hPa 2.0 mm
80%
14.0°
8
Windvlaag: 7.6 m/s
72%
13:00
16°
1005.9 hPa 1.9 mm
81%
14.2°
7
Windvlaag: 7.8 m/s
78%
14:00
16°
1005.6 hPa 2.7 mm
82%
13.9°
7
Windvlaag: 5.6 m/s
88%
15:00
15°
1005.3 hPa 2.5 mm
82%
13.3°
7
Windvlaag: 4.4 m/s
88% warningclass
16:00
15°
1004.6 hPa 2.3 mm
100%
13.1°
6
Windvlaag: 6 m/s
93%
17:00
14°
1004.3 hPa 2.6 mm
100%
12.7°
7
Windvlaag: 5.9 m/s
96%
18:00
14°
1004.4 hPa 2.5 mm
100%
12.5°
6
Windvlaag: 5.2 m/s
98%
19:00
14°
1004.8 hPa 3.1 mm
100%
12.4°
6
Windvlaag: 4.3 m/s
99%
20:00
14°
1004.7 hPa 3.3 mm
100%
12.1°
6
Windvlaag: 4.8 m/s
99%
21:00
14°
1004.8 hPa 3.3 mm
100%
12.2°
5
Windvlaag: 3.2 m/s
98%
22:00
14°
1004.5 hPa 3.1 mm
100%
12.1°
5
Windvlaag: 2.7 m/s
99%
23:00
14°
1004.2 hPa 3.0 mm
100%
12.1°
5
Windvlaag: 2.7 m/s
99%
 07:00     16:24    Daglengte: 9:24 Vrijdag 04 Dec
00:00
13°
1003.7 hPa 3.1 mm
100%
11.4°
4
Windvlaag: 3.4 m/s
96%
01:00
13°
1003.7 hPa 3.1 mm
100%
11.1°
3
Windvlaag: 1.5 m/s
99%
02:00
12°
1004.1 hPa 3.1 mm
89%
10.9°
3
Windvlaag: 1.1 m/s
98%
03:00
12°
1004.1 hPa
96%
11.0°
3
Windvlaag: 0.7 m/s
95%
04:00
12°
1004.1 hPa 3.6 mm
76%
11.0°
3
Windvlaag: -1.2 m/s
95%
05:00
12°
1004.2 hPa 3.3 mm
25%
10.9°
3
Windvlaag: -0.9 m/s
93%
06:00
12°
1004.6 hPa 3.4 mm
21%
10.7°
3
Windvlaag: -0.8 m/s
79%
07:00
11°
1005.1 hPa 3.8 mm
21%
10.4°
2
Windvlaag: -0.3 m/s
75%
08:00
12°
1005.8 hPa
21%
10.5°
2
Windvlaag: 1.7 m/s
42%
09:00
13°
1006.0 hPa
21%
10.2°
2
Windvlaag: 2.7 m/s
44%
10:00
14°
1006.2 hPa
21%
10.0°
2
Windvlaag: 4.7 m/s
29%
11:00
14°
1006.2 hPa
21%
9.6°
2
Windvlaag: 5.3 m/s
40%
12:00
15°
1006.2 hPa
21%
9.1°
3
Windvlaag: 6.4 m/s
28%
13:00
15°
1006.2 hPa
21%
8.3°
3
Windvlaag: 1.1 m/s
21%
14:00
14°
1006.4 hPa
23%
8.3°
3
Windvlaag: 9.2 m/s
24%
15:00
14°
1006.6 hPa
28%
8.8°
3
Windvlaag: 9.1 m/s
26%
16:00
14°
1006.8 hPa
29%
8.9°
4
Windvlaag: 8.9 m/s
30%
17:00
13°
1007.1 hPa
32%
8.7°
3
Windvlaag: 8.5 m/s
40%
18:00
12°
1007.3 hPa
74%
8.7°
2
Windvlaag: 9.2 m/s
45%
Temp/Neerslag /Baro Onweer/Dauwpunt
    Temp Baro Neerslag Dauwpunt Wind Bewolking  
 06:57     16:24    Daglengte: 9:27 Vandaag
19:00
11°
1015.4 hPa   7.5°
2
53%
22:00
11°
1015.1 hPa   8.6°
2
55%
 06:58     16:24    Daglengte: 9:26 Morgen
01:00
11°
1014.3 hPa 0.2 mm 9.4°
3
42%
04:00
12°
1013.1 hPa 0.3 mm 10.7°
4
67%
07:00
12°
1013.0 hPa 0.3 mm 10.8°
3
43%
10:00
15°
1013.5 hPa 0.3 mm 11.7°
5
63%
13:00
16°
1011.7 hPa 0.3 mm 11.6°
5
83%
16:00
16°
1011.1 hPa   11.1°
5
59%
19:00
15°
1010.6 hPa   11.9°
6
64%
22:00
16°
1010.4 hPa   11.8°
8
61%
 06:59     16:24    Daglengte: 9:25 Donderdag 03 Dec
01:00
15°
1009.6 hPa 1.8 mm 12.5°
7
78% warningclass
04:00
15°
1008.3 hPa 5.1 mm 13.3°
7
81% warningclass
07:00
15°
1008.0 hPa 7.9 mm 13.8°
7
83% warningclass
10:00
16°
1007.8 hPa 5.1 mm 13.6°
7
78%
13:00
16°
1005.9 hPa 6.3 mm 14.2°
7
78%
16:00
15°
1004.6 hPa 7.4 mm 13.1°
6
93%
19:00
14°
1004.8 hPa 8.2 mm 12.4°
6
99%
22:00
14°
1004.5 hPa 9.7 mm 12.1°
5
99%
 07:00     16:24    Daglengte: 9:24 Vrijdag 04 Dec
01:00
13°
1003.7 hPa 9.2 mm 11.1°
3
99%
04:00
12°
1004.1 hPa 6.7 mm 11.0°
3
95%
07:00
11°
1005.1 hPa 10.4 mm 10.4°
2
75%
10:00
14°
1006.2 hPa   10.0°
2
29%
13:00
15°
1006.2 hPa   8.3°
3
21%
16:00
14°
1006.8 hPa   8.9°
4
30%
19:00
12°
1007.6 hPa   8.8°
2
49%
22:00
12°
1007.9 hPa 18.1 mm 8.7°
4
58%
 07:01     16:24    Daglengte: 9:23 Zaterdag 05 Dec
01:00
14°
1008.0 hPa 18.3 mm 9.2°
5
61%
04:00
14°
1007.8 hPa 18.3 mm 9.8°
6
48%
07:00
15°
1007.6 hPa 18.5 mm 10.5°
7
36%
10:00
15°
1007.6 hPa 19.6 mm 11.6°
8
51%
13:00
15°
1007.4 hPa 20.0 mm 12.7°
9
67%
16:00
15°
1007.1 hPa 21.4 mm 12.8°
8
64%
19:00
15°
1007.0 hPa 25.1 mm 13.0°
8
62%
22:00
15°
1006.3 hPa 28.0 mm 12.9°
9
71%
 07:02     16:24    Daglengte: 9:22 Zondag 06 Dec
01:00
15°
1005.8 hPa 30.7 mm 12.7°
9
79%
04:00
14°
1004.6 hPa 30.7 mm 12.8°
9
86%
07:00
14°
1003.4 hPa 30.7 mm 12.8°
9
92%
10:00
14°
1002.7 hPa 30.7 mm 12.6°
7
92%
13:00
14°
1001.9 hPa 30.7 mm 12.3°
6
92%
16:00
12°
1003.4 hPa 30.7 mm 9.9°
4
57%
19:00
11°
1004.9 hPa 30.7 mm 7.4°
2
23%
22:00
Voelt als: 7.4°
1006.9 hPa 30.7 mm 6.0°
2
12%
 07:02     16:24    Daglengte: 9:22 Maandag 07 Dec
01:00
Voelt als: 5.1°
1008.9 hPa 30.7 mm 4.5°
2
1%
04:00
Voelt als: 5.8°
1010.1 hPa 30.7 mm 4.0°
2
42%
07:00
Voelt als: 6.8°
1011.4 hPa 30.7 mm 3.3°
1
84%
10:00
11°
1012.2 hPa 30.7 mm 5.4°
3
85%
13:00
14°
1012.9 hPa 31.3 mm 7.2°
5
87%
16:00
13°
1013.9 hPa 31.9 mm 7.5°
4
48%
19:00
11°
1015.0 hPa 31.9 mm 7.6°
2
9%
22:00
11°
1015.6 hPa 31.9 mm 7.4°
2
20%
 07:03     16:24    Daglengte: 9:21 Dinsdag 08 Dec
01:00
11°
1016.0 hPa 31.9 mm 7.4°
2
32%
04:00
11°
1015.7 hPa 31.9 mm 7.5°
2
40%
07:00
11°
1015.6 hPa 31.9 mm 7.6°
3
49%
10:00
13°
1014.7 hPa 31.9 mm 9.0°
5
48%
13:00
14°
1013.8 hPa 31.9 mm 10.3°
6
47%
16:00
13°
1013.3 hPa   9.8°
4
57%
19:00
12°
1012.9 hPa 63.7 mm 9.1°
2
67%
 07:04     16:24    Daglengte: 9:20 Woensdag 09 Dec
01:00
12°
1012.2 hPa 63.7 mm 9.2°
2
59%
07:00
12°
1010.8 hPa 63.7 mm 9.3°
2
90%
13:00
14°
1009.1 hPa 63.7 mm 8.1°
3
89%
19:00
11°
1007.8 hPa 63.7 mm 9.2°
3
90%
 07:05     16:24    Daglengte: 9:19 Donderdag 10 Dec
01:00
10°
1005.7 hPa 63.8 mm 9.1°
1
65%
07:00
Voelt als: 6.6°
1002.8 hPa 64.5 mm 6.3°
2
91%
13:00
13°
1000.3 hPa 64.5 mm 7.0°
1
91%
19:00
Voelt als: 8.0°
999.9 hPa 64.5 mm 6.9°
2
82%
 07:06     16:24    Daglengte: 9:18 Vrijdag 11 Dec
01:00
15°
1005.7 hPa 69.6 mm 11.2°
10
1%
07:00
14°
1003.0 hPa 77.1 mm 11.8°
10
1%
13:00
15°
1011.4 hPa 3.9 mm 10.6°
6
94%
19:00
13°
1010.2 hPa 4.2 mm 10.6°
4
93%
 07:06     16:24    Daglengte: 9:18 Zaterdag 12 Dec
01:00
13°
1009.5 hPa 3.7 mm 10.1°
2
81%
07:00
12°
1008.6 hPa 2.1 mm 9.2°
1
73%
13:00
14°
1008.6 hPa 1.1 mm 9.3°
1
69%
19:00
13°
1008.6 hPa   8.9°
1
62%
 07:07     16:24    Daglengte: 9:17 Zondag 13 Dec
01:00
12°
1009.0 hPa 1.2 mm 8.7°
1
67%
07:00
11°
1008.9 hPa 1.2 mm 8.4°
1
64%
13:00
14°
1009.8 hPa 0.5 mm 8.8°
0
63%
19:00
12°
1010.6 hPa 1.2 mm 8.7°
0
59%
 07:08     16:25    Daglengte: 9:17 Maandag 14 Dec
01:00
12°
1011.5 hPa 1.3 mm 8.5°
1
58%
07:00
11°
1011.1 hPa 2.0 mm 8.0°
1
58%
13:00
14°
1011.8 hPa 1.5 mm 8.8°
0
63%
19:00
12°
1012.5 hPa 0.7 mm 8.5°
1
71%
 07:09     16:25    Daglengte: 9:16 Dinsdag 15 Dec
01:00
11°
1013.2 hPa 0.5 mm 8.3°
0
61%
07:00
11°
1013.1 hPa 0.9 mm 8.3°
0
67%
13:00
14°
1013.8 hPa 0.7 mm 9.0°
1
59%
19:00
12°
1014.2 hPa 1.4 mm 8.7°
1
56%
 07:09     16:25    Daglengte: 9:16 Woensdag 16 Dec
01:00
12°
1014.6 hPa 1.1 mm 8.6°
1
66%
07:00
11°
1014.4 hPa 1.1 mm 8.1°
1
63%
13:00
14°
1015.2 hPa 0.8 mm 8.6°
1
62%
  CAPE Lifted Index Hail Supercell Tornado SRH 3km CL BTM PRES CL TOP PRES Swiss DWD icon SMHI TS
 06:57     16:24    Daglengte: 9:27 Vandaag
19:00 5 J/kg 3.2 K 0 % 0 % 0 % 0 m²/s² 0 0 10.55 2
20:00 21 J/kg 2.4 K 0 % 0 % 0 % 0 m²/s² 0 0 9.75 3
21:00 48 J/kg 2.0 K 0 % 0 % 0 % 0 m²/s² 0 0 8.42 3
22:00 121 J/kg 1.0 K 0 % 0 % 0 % 0 m²/s² 0 0 5.5 2
23:00 176 J/kg 1.2 K 0 % 0 % 0 % 0 m²/s² 0 0 6.18 2
 06:58     16:24    Daglengte: 9:26 Morgen
00:00 162 J/kg 1.8 K 0 % 0 % 0 % 0 m²/s² 0 0 6.78 3
01:00 218 J/kg 1.3 K 0 % 0 % 0 % 0 m²/s² 0 0 6.16 80
02:00 336 J/kg 0.2 K 0 % 0 % 0 % 0 m²/s² 0 0 5.06 80
03:00 365 J/kg -0.2 K 0 % 0 % 0 % 0 m²/s² 0 0 5.17 80
04:00 424 J/kg -0.6 K 0 % 0 % 0 % 0 m²/s² 0 0 4.62 80
05:00 312 J/kg 0.1 K 0 % 0 % 0 % 0 m²/s² 0 0 3.85 80
06:00 282 J/kg 0.2 K 0 % 0 % 0 % 0 m²/s² 0 0 2.48 3
07:00 280 J/kg 0.1 K 0 % 0 % 0 % 0 m²/s² 0 0 2.14 80
08:00 174 J/kg 0.6 K 0 % 0 % 0 % 0 m²/s² 0 0 2.76 80
09:00 261 J/kg 0.0 K 0 % 0 % 0 % 0 m²/s² 0 0 1.17 3
10:00 253 J/kg -0.1 K 0 % 0 % 0 % 0 m²/s² 0 0 1.64 80
11:00 262 J/kg 0.0 K 0 % 0 % 0 % 0 m²/s² 0 0 2.52 3
12:00 259 J/kg -0.2 K 0 % 0 % 0 % 0 m²/s² 0 0 1 3
13:00 260 J/kg -0.4 K 0 % 0 % 0 % 0 m²/s² 0 0 0.74 3
14:00 307 J/kg -0.6 K 0 % 0 % 0 % 0 m²/s² 0 0 0.48 3
15:00 277 J/kg -0.3 K 0 % 0 % 0 % 0 m²/s² 0 0 0.99 3
16:00 165 J/kg 0.3 K 0 % 0 % 0 % 0 m²/s² 0 0 2.22 3
17:00 235 J/kg -0.3 K 0 % 0 % 0 % 0 m²/s² 0 0 1.26 3
18:00 495 J/kg -1.5 K 0 % 0 % 0 % 0 m²/s² 0 0 0 3
19:00 783 J/kg -2.4 K 0 % 0 % 0 % 0 m²/s² 0 0 -0.84 3
20:00 846 J/kg -2.6 K 0 % 0 % 0 % 0 m²/s² 0 0 -1.31 3
21:00 996 J/kg -3.3 K 0 % 0 % 0 % 0 m²/s² 0 0 -2.1 3
22:00 807 J/kg -2.8 K 0 % 0 % 0 % 0 m²/s² 0 0 -1.9 3
23:00 502 J/kg -2.0 K 0 % 0 % 0 % 0 m²/s² 0 0 -1.1 3
 06:59     16:24    Daglengte: 9:25 Donderdag 03 Dec
00:00 472 J/kg -1.7 K 0 % 0 % 0 % 0 m²/s² 0 0 -0.95 3
01:00 789 J/kg -3.0 K 0 % 0 % 0 % 0 m²/s² 0 0 -2.79 3
02:00 852 J/kg -3.1 K 0 % 0 % 0 % 0 m²/s² 0 0 -2.8 80
03:00 928 J/kg -3.6 K 0 % 0 % 0 % 0 m²/s² 0 0 -2.85 80
04:00 1084 J/kg -4.2 K 0 % 0 % 0 % 0 m²/s² 0 0 -3.39 95
05:00 1118 J/kg -4.2 K 0 % 0 % 0 % 0 m²/s² 0 0 -3 80
06:00 947 J/kg -3.7 K 0 % 0 % 0 % 0 m²/s² 0 0 -2.08 80
07:00 895 J/kg -3.4 K 0 % 0 % 0 % 0 m²/s² 0 0 -2.32 80
08:00 991 J/kg -3.7 K 0 % 0 % 0 % 0 m²/s² 0 0 -1.78 3
09:00 860 J/kg -3.2 K 0 % 0 % 0 % 0 m²/s² 0 0 -0.59 3
10:00 997 J/kg -3.3 K 0 % 0 % 0 % 0 m²/s² 0 0 -0.87 3
11:00 1074 J/kg -3.5 K 0 % 0 % 0 % 0 m²/s² 0 0 0.28 3
12:00 827 J/kg -2.9 K 0 % 0 % 0 % 0 m²/s² 0 0 2.26 80
13:00 837 J/kg -2.8 K 0 % 0 % 0 % 0 m²/s² 0 0 1.94 80
14:00 117 J/kg -1.2 K 0 % 0 % 0 % 0 m²/s² 0 0 3.45 80
15:00 25 J/kg -2.3 K 0 % 0 % 0 % 0 m²/s² 0 0 1.57 95
16:00 869 J/kg -3.6 K 0 % 0 % 0 % 0 m²/s² 0 0 -1.38 80
17:00 162 J/kg -0.7 K 0 % 0 % 0 % 0 m²/s² 0 0 0.29 3
18:00 2 J/kg 1.0 K 0 % 0 % 0 % 0 m²/s² 0 0 1.63 80
19:00 7 J/kg 2.0 K 0 % 0 % 0 % 0 m²/s² 0 0 2.81 80
20:00 1 J/kg 2.2 K 0 % 0 % 0 % 0 m²/s² 0 0 2.44 80
21:00 4 J/kg 2.6 K 0 % 0 % 0 % 0 m²/s² 0 0 2.96 80
22:00 3 J/kg 2.3 K 0 % 0 % 0 % 0 m²/s² 0 0 2.63 80
23:00 31 J/kg 2.3 K 0 % 0 % 0 % 0 m²/s² 0 0 2.75 80
 07:00     16:24    Daglengte: 9:24 Vrijdag 04 Dec
00:00 14 J/kg 2.6 K 0 % 0 % 0 % 0 m²/s² 0 0 3.77 80
01:00 28 J/kg 2.9 K 0 % 0 % 0 % 0 m²/s² 0 0 5.33 61
02:00 0 J/kg 2.8 K 0 % 0 % 0 % 0 m²/s² 0 0 5.2 3
03:00 17 J/kg 3.0 K 0 % 0 % 0 % 0 m²/s² 0 0 6.18 61
04:00 12 J/kg 3.4 K 0 % 0 % 0 % 0 m²/s² 0 0 7.12 3
05:00 0 J/kg 4.1 K 0 % 0 % 0 % 0 m²/s² 0 0 9.29 3
06:00 11 J/kg 5.1 K 0 % 0 % 0 % 0 m²/s² 0 0 10.59 1
07:00 10 J/kg 5.6 K 0 % 0 % 0 % 0 m²/s² 0 0 10.43 0
08:00 7 J/kg 6.0 K 0 % 0 % 0 % 0 m²/s² 0 0 10.98 0
09:00 8 J/kg 5.8 K 0 % 0 % 0 % 0 m²/s² 0 0 10.93 0
10:00 6 J/kg 5.1 K 0 % 0 % 0 % 0 m²/s² 0 0 9.99 0
11:00 26 J/kg 4.4 K 0 % 0 % 0 % 0 m²/s² 0 0 8.3 1
12:00 72 J/kg 3.6 K 0 % 0 % 0 % 0 m²/s² 0 0 8.64 1
13:00 123 J/kg 2.4 K 0 % 0 % 0 % 0 m²/s² 0 0 7.71 1
14:00 68 J/kg 3.1 K 0 % 0 % 0 % 0 m²/s² 0 0 7.3 1
15:00 53 J/kg 3.2 K 0 % 0 % 0 % 0 m²/s² 0 0 7.97 1
16:00 42 J/kg 3.2 K 0 % 0 % 0 % 0 m²/s² 0 0 6.44 1
17:00 34 J/kg 3.3 K 0 % 0 % 0 % 0 m²/s² 0 0 5.49 1
18:00 30 J/kg 3.6 K 0 % 0 % 0 % 0 m²/s² 0 0 7.5 2
Temp Baro Wind Neerslag
  EWN Forecast EWN WRFDA DWD ICON FMI HIRLAM MET Norway GFS
 06:57     16:24    Daglengte: 9:27 Vandaag
19:00 10.6° 1015.4 hPa 2.1 m/s 0.0 mm 13.3° 1013.0 hPa 3.4 m/s 0.0 mm 11.7° 1015.5 hPa 2.0 m/s -2.0 mm 11.5° 1015.7 hPa 1.4 m/s 0.0 mm 9.4° 1015.5 hPa 2.0 m/s 11.7° 1014.8 hPa 2.5 m/s
22:00 11.2° 1015.1 hPa 2.4 m/s 0.0 mm 13.6° 1012.7 hPa 3.8 m/s 0.3 mm 12.0° 1015.2 hPa 2.2 m/s 0.0 mm 11.6° 1015.1 hPa 2.3 m/s 0.0 mm 10.7° 1015.2 hPa 1.5 m/s 11.5° 1014.6 hPa 3.5 m/s
 06:58     16:24    Daglengte: 9:26 Morgen
01:00 11.5° 1014.3 hPa 3.1 m/s 0.2 mm 14.8° 1012.0 hPa 5.6 m/s 0.7 mm 12.0° 1014.0 hPa 2.7 m/s 0.3 mm 11.4° 1014.6 hPa 3.3 m/s 0.0 mm 11.4° 1014.4 hPa 1.9 m/s 13.1° 1014.1 hPa 4.3 m/s
04:00 12.4° 1013.1 hPa 3.7 m/s 0.3 mm 15.2° 1010.8 hPa 6.5 m/s 1.0 mm 13.4° 1013.4 hPa 2.7 m/s 1.0 mm 11.0° 1013.2 hPa 4.1 m/s 0.0 mm 12.7° 1013.1 hPa 3.0 m/s 13.0° 1012.9 hPa 4.8 m/s
07:00 12.5° 1013.0 hPa 2.9 m/s 0.3 mm 15.4° 1011.3 hPa 6.0 m/s 1.2 mm 14.1° 1013.0 hPa 2.7 m/s 1.1 mm 11.7° 1012.7 hPa 2.8 m/s 0.0 mm 12.5° 1013.2 hPa 2.4 m/s 13.6° 1013.1 hPa 4.9 m/s
10:00 15.2° 1013.5 hPa 5.2 m/s 0.3 mm 16.6° 1011.5 hPa 8.4 m/s 1.2 mm 16.2° 1013.7 hPa 5.1 m/s 0.5 mm 15.0° 1012.4 hPa 2.6 m/s 0.0 mm 15.0° 1013.8 hPa 5.9 m/s 15.6° 1013.3 hPa 6.1 m/s
13:00 16.4° 1011.7 hPa 5.4 m/s 0.3 mm 17.2° 1010.2 hPa 7.1 m/s 1.2 mm 16.6° 1011.5 hPa 5.7 m/s 0.1 mm 17.5° 1011.5 hPa 5.5 m/s 0.0 mm 16.1° 1012.1 hPa 5.0 m/s 16.3° 1012.1 hPa 6.3 m/s
16:00 15.6° 1011.1 hPa 4.7 m/s 0.0 mm 16.8° 1009.5 hPa 7.3 m/s 1.2 mm 16.0° 1011.2 hPa 4.8 m/s 0.0 mm 16.8° 1010.7 hPa 6.0 m/s 0.0 mm 15.2° 1011.2 hPa 4.1 m/s 15.5° 1010.9 hPa 6.2 m/s
19:00 15.3° 1010.6 hPa 5.6 m/s 0.0 mm 16.7° 1009.4 hPa 9.2 m/s 1.2 mm 15.9° 1010.4 hPa 4.8 m/s 0.1 mm 16.5° 1010.3 hPa 8.1 m/s 0.0 mm 15.0° 1010.9 hPa 5.2 m/s 15.2° 1010.9 hPa 7.7 m/s
22:00 15.6° 1010.4 hPa 7.7 m/s 0.0 mm 16.7° 1009.5 hPa 9.6 m/s 1.3 mm 16.0° 1010.1 hPa 7.4 m/s 0.0 mm 16.1° 1010.2 hPa 8.1 m/s 0.0 mm 15.3° 1010.6 hPa 6.0 m/s 15.8° 1010.5 hPa 9.8 m/s
 06:59     16:24    Daglengte: 9:25 Donderdag 03 Dec
01:00 15.4° 1009.6 hPa 7.3 m/s 1.8 mm 16.6° 1008.3 hPa 10.7 m/s 2.5 mm 15.6° 1009.2 hPa 7.2 m/s 0.1 mm 15.7° 1009.7 hPa 6.7 m/s 0.0 mm 15.0° 1009.9 hPa 6.3 m/s 16.1° 1009.0 hPa 10.1 m/s
04:00 15.1° 1008.3 hPa 6.7 m/s 5.1 mm 16.8° 1007.0 hPa 10.1 m/s 14.6 mm 15.3° 1007.3 hPa 7.1 m/s 2.5 mm 15.3° 1008.7 hPa 5.1 m/s 0.0 mm 14.2° 1008.6 hPa 5.9 m/s 16.1° 1008.0 hPa 11.1 m/s
07:00 15.1° 1008.0 hPa 6.5 m/s 7.9 mm 16.6° 1005.8 hPa 9.3 m/s 21.5 mm 15.2° 1007.4 hPa 6.9 m/s 4.5 mm 15.3° 1008.1 hPa 4.7 m/s 0.0 mm 13.6° 1008.8 hPa 5.7 m/s 16.1° 1007.3 hPa 10.4 m/s
10:00 15.9° 1007.8 hPa 6.5 m/s 5.1 mm 17.5° 1006.0 hPa 10.6 m/s 24.7 mm 16.1° 1007.4 hPa 7.9 m/s 0.5 mm 15.9° 1007.9 hPa 5.1 m/s 0.0 mm 15.1° 1008.5 hPa 5.0 m/s 16.6° 1007.4 hPa 12.2 m/s
13:00 16.0° 1005.9 hPa 7.4 m/s 6.3 mm 17.8° 1003.5 hPa 10.8 m/s 25.9 mm 16.3° 1005.1 hPa 7.8 m/s 0.4 mm 15.9° 1006.7 hPa 5.3 m/s 0.0 mm 15.1° 1006.6 hPa 6.4 m/s 16.8° 1005.4 hPa 12.2 m/s
16:00 15.1° 1004.6 hPa 6.3 m/s 7.4 mm 16.4° 1001.9 hPa 5.5 m/s 27.2 mm 15.2° 1004.1 hPa 7.1 m/s 2.9 mm 14.3° 1006.1 hPa 6.1 m/s 16.2° 1003.4 hPa 12.0 m/s
19:00 13.8° 1004.8 hPa 6.2 m/s 8.2 mm 12.4° 1003.0 hPa 4.6 m/s 40.9 mm 14.6° 1003.5 hPa 5.3 m/s 3.2 mm 13.6° 1006.4 hPa 6.1 m/s 15.8° 1002.9 hPa 11.6 m/s
22:00 13.6° 1004.5 hPa 4.7 m/s 9.7 mm 12.4° 1002.7 hPa 1.1 m/s 44.4 mm 13.7° 1003.6 hPa 2.4 m/s 7.1 mm 13.6° 1006.5 hPa 5.0 m/s 14.0° 1002.3 hPa 4.8 m/s
 07:00     16:24    Daglengte: 9:24 Vrijdag 04 Dec
01:00 12.6° 1003.7 hPa 3.3 m/s 9.2 mm 11.9° 1002.3 hPa 1.7 m/s 44.6 mm 12.2° 1003.4 hPa 3.3 m/s 4.1 mm 13.2° 1005.9 hPa 4.1 m/s 13.1° 1002.4 hPa 1.7 m/s
04:00 12.0° 1004.1 hPa 3.0 m/s 6.7 mm 10.8° 1002.3 hPa 2.1 m/s 44.7 mm 11.8° 1004.2 hPa 2.8 m/s 0.1 mm 13.1° 1005.4 hPa 3.9 m/s 11.9° 1002.5 hPa 2.4 m/s
07:00 11.3° 1005.1 hPa 2.4 m/s 10.4 mm 10.1° 1003.8 hPa 1.7 m/s 44.7 mm 11.1° 1005.2 hPa 1.6 m/s 0.0 mm 13.1° 1006.0 hPa 3.5 m/s 12.0° 1004.3 hPa 3.1 m/s
10:00 13.7° 1006.2 hPa 1.9 m/s 0.0 mm 13.4° 1004.8 hPa 1.2 m/s 44.7 mm 13.2° 1007.6 hPa 0.6 m/s 0.0 mm 13.9° 1006.1 hPa 2.7 m/s 14.3° 1006.4 hPa 3.6 m/s
13:00 14.9° 1006.2 hPa 2.9 m/s 0.0 mm 15.7° 1004.2 hPa 7.0 m/s 44.7 mm 14.8° 1007.2 hPa 3.2 m/s 0.0 mm 14.8° 1006.2 hPa 1.9 m/s 15.0° 1006.2 hPa 5.5 m/s
16:00 13.6° 1006.8 hPa 3.9 m/s 0.0 mm 15.7° 1004.3 hPa 7.6 m/s 44.7 mm 14.7° 1008.0 hPa 5.3 m/s 0.0 mm 12.3° 1007.0 hPa 2.0 m/s 14.5° 1006.5 hPa 6.0 m/s
19:00 11.9° 1007.6 hPa 2.4 m/s 0.0 mm 15.5° 1005.0 hPa 4.8 m/s 44.7 mm 13.5° 1008.6 hPa 2.2 m/s 0.0 mm 9.8° 1007.7 hPa 2.1 m/s 13.7° 1007.2 hPa 4.1 m/s
22:00 12.5° 1007.9 hPa 4.1 m/s 18.1 mm 12.3° 1008.0 hPa 3.7 m/s 14.7° 1007.2 hPa 8.9 m/s 18.1 mm
 07:01     16:24    Daglengte: 9:23 Zaterdag 05 Dec
01:00 13.6° 1008.0 hPa 5.0 m/s 18.3 mm 13.5° 1008.1 hPa 4.5 m/s 15.0° 1006.4 hPa 11.1 m/s 18.3 mm
04:00 14.1° 1007.8 hPa 5.9 m/s 18.3 mm 14.0° 1008.0 hPa 5.3 m/s 15.2° 1005.3 hPa 11.5 m/s 18.3 mm
07:00 14.6° 1007.6 hPa 6.7 m/s 18.5 mm 14.5° 1007.9 hPa 6.2 m/s 15.3° 1004.6 hPa 11.9 m/s 18.5 mm
10:00 15.0° 1007.6 hPa 7.7 m/s 19.6 mm 14.8° 1007.8 hPa 7.2 m/s 16.7° 1004.9 hPa 13.0 m/s 19.6 mm
13:00 15.4° 1007.4 hPa 8.8 m/s 20.0 mm 15.2° 1007.8 hPa 8.2 m/s 17.1° 1003.0 hPa 14.9 m/s 20.0 mm
16:00 15.1° 1007.1 hPa 8.4 m/s 21.4 mm 14.9° 1007.7 hPa 7.8 m/s 16.2° 1001.0 hPa 14.9 m/s 21.4 mm
19:00 14.9° 1007.0 hPa 8.3 m/s 25.1 mm 14.7° 1007.6 hPa 7.5 m/s 16.8° 999.8 hPa 16.9 m/s 25.1 mm
22:00 14.9° 1006.3 hPa 8.9 m/s 28.0 mm 14.6° 1006.9 hPa 8.4 m/s 17.4° 1000.4 hPa 14.7 m/s 28.0 mm
 07:02     16:24    Daglengte: 9:22 Zondag 06 Dec
01:00 14.6° 1005.8 hPa 9.1 m/s 30.7 mm 14.6° 1006.1 hPa 9.3 m/s 14.4° 1002.1 hPa 7.0 m/s 30.7 mm
04:00 14.5° 1004.6 hPa 9.3 m/s 30.7 mm 14.5° 1004.7 hPa 9.3 m/s 14.2° 1003.3 hPa 9.0 m/s 30.7 mm
07:00 14.2° 1003.4 hPa 8.8 m/s 30.7 mm 14.4° 1003.3 hPa 9.3 m/s 12.5° 1004.7 hPa 3.3 m/s 30.7 mm
10:00 14.1° 1002.7 hPa 7.4 m/s 30.7 mm 14.2° 1002.3 hPa 7.8 m/s 13.4° 1006.6 hPa 3.4 m/s 30.7 mm
13:00 13.9° 1001.9 hPa 6.1 m/s 30.7 mm 13.9° 1001.4 hPa 6.2 m/s 14.3° 1007.0 hPa 4.8 m/s 30.7 mm
16:00 12.3° 1003.4 hPa 4.0 m/s 30.7 mm 12.2° 1003.0 hPa 4.1 m/s 13.5° 1007.4 hPa 3.0 m/s 30.7 mm
19:00 10.5° 1004.9 hPa 2.0 m/s 30.7 mm 10.4° 1004.6 hPa 2.0 m/s 12.2° 1008.1 hPa 1.6 m/s 30.7 mm
22:00 8.5° 1006.9 hPa 2.1 m/s 30.7 mm 8.3° 1006.8 hPa 2.1 m/s 11.3° 1008.8 hPa 1.1 m/s 30.7 mm
 07:02     16:24    Daglengte: 9:22 Maandag 07 Dec
01:00 6.6° 1008.9 hPa 2.1 m/s 30.7 mm 6.2° 1008.9 hPa 2.3 m/s 10.7° 1008.5 hPa 0.3 m/s 30.7 mm
04:00 6.7° 1010.1 hPa 1.6 m/s 30.7 mm 6.3° 1010.3 hPa 1.5 m/s 10.7° 1008.3 hPa 2.1 m/s 30.7 mm
07:00 6.8° 1011.4 hPa 0.8 m/s 30.7 mm 6.5° 1011.7 hPa 0.8 m/s 10.6° 1008.3 hPa 1.0 m/s 30.7 mm
10:00 10.7° 1012.2 hPa 3.0 m/s 30.7 mm 10.4° 1012.5 hPa 3.0 m/s 13.1° 1010.0 hPa 3.2 m/s 30.7 mm
13:00 14.4° 1012.9 hPa 5.2 m/s 31.3 mm 14.4° 1013.2 hPa 5.2 m/s 14.0° 1010.1 hPa 5.7 m/s 31.3 mm
16:00 12.9° 1013.9 hPa 3.5 m/s 31.9 mm 12.8° 1014.2 hPa 3.6 m/s 13.9° 1010.5 hPa 2.9 m/s 31.9 mm
19:00 11.3° 1015.0 hPa 2.2 m/s 31.9 mm 11.2° 1015.3 hPa 2.0 m/s 12.5° 1011.9 hPa 4.7 m/s 31.9 mm
22:00 11.0° 1015.6 hPa 1.9 m/s 31.9 mm 11.0° 1015.8 hPa 1.9 m/s 11.4° 1013.4 hPa 2.4 m/s 31.9 mm
 07:03     16:24    Daglengte: 9:21 Dinsdag 08 Dec
01:00 10.8° 1016.0 hPa 1.7 m/s 31.9 mm 10.8° 1016.2 hPa 1.7 m/s 11.1° 1013.3 hPa 1.4 m/s 31.9 mm
04:00 11.0° 1015.7 hPa 2.4 m/s 31.9 mm 10.9° 1016.0 hPa 2.5 m/s 11.2° 1013.5 hPa 1.3 m/s 31.9 mm
07:00 11.1° 1015.6 hPa 3.2 m/s 31.9 mm 11.1° 1015.7 hPa 3.3 m/s 10.9° 1014.1 hPa 2.6 m/s 31.9 mm
10:00 12.7° 1014.7 hPa 4.5 m/s 31.9 mm 12.6° 1014.7 hPa 4.7 m/s 13.2° 1015.6 hPa 2.8 m/s 31.9 mm
13:00 14.3° 1013.8 hPa 5.8 m/s 31.9 mm 14.2° 1013.6 hPa 6.1 m/s 14.8° 1015.7 hPa 2.9 m/s 31.9 mm
16:00 13.4° 1013.3 hPa 4.0 m/s 31.9 mm 13.4° 1013.0 hPa 4.1 m/s 13.5° 1016.6 hPa 2.6 m/s 31.9 mm
19:00 12.5° 1012.9 hPa 2.2 m/s 31.9 mm 12.6° 1012.5 hPa 2.1 m/s 11.2° 1017.6 hPa 3.7 m/s 31.9 mm
 07:04     16:24    Daglengte: 9:20 Woensdag 09 Dec
01:00 11.6° 1012.2 hPa 2.4 m/s 31.9 mm 11.8° 1011.6 hPa 2.4 m/s 9.8° 1018.8 hPa 1.9 m/s 31.9 mm
07:00 12.0° 1010.8 hPa 2.1 m/s 31.9 mm 12.3° 1010.1 hPa 2.2 m/s 9.3° 1018.7 hPa 0.7 m/s 31.9 mm
13:00 14.2° 1009.1 hPa 3.4 m/s 31.9 mm 14.3° 1008.3 hPa 3.4 m/s 12.9° 1017.8 hPa 3.1 m/s 31.9 mm
19:00 10.9° 1007.8 hPa 3.3 m/s 31.9 mm 10.8° 1007.1 hPa 3.2 m/s 12.4° 1015.8 hPa 4.3 m/s 31.9 mm
 07:05     16:24    Daglengte: 9:19 Donderdag 10 Dec
01:00 10.2° 1005.7 hPa 1.0 m/s 31.9 mm 9.9° 1005.0 hPa 0.7 m/s 13.0° 1013.5 hPa 3.8 m/s 31.9 mm
07:00 7.7° 1002.8 hPa 1.9 m/s 32.2 mm 7.2° 1002.1 hPa 1.8 m/s 12.9° 1010.0 hPa 2.7 m/s 32.2 mm
13:00 13.2° 1000.3 hPa 1.5 m/s 32.2 mm 12.9° 999.5 hPa 1.3 m/s 16.3° 1008.7 hPa 3.2 m/s 32.2 mm
19:00 9.2° 999.9 hPa 2.3 m/s 32.3 mm 8.7° 999.2 hPa 2.2 m/s 14.2° 1007.5 hPa 3.4 m/s 32.3 mm
 07:06     16:24    Daglengte: 9:18 Vrijdag 11 Dec
01:00 15.2° 1005.7 hPa 9.6 m/s 36.0 mm 15.2° 1005.7 hPa 9.6 m/s 36.0 mm
07:00 14.3° 1003.0 hPa 9.7 m/s 39.8 mm 14.3° 1003.0 hPa 9.7 m/s 39.8 mm
13:00 14.7° 1011.4 hPa 5.6 m/s 3.9 mm
19:00 13.4° 1010.2 hPa 3.6 m/s 4.2 mm
 07:06     16:24    Daglengte: 9:18 Zaterdag 12 Dec
01:00 12.9° 1009.5 hPa 1.9 m/s 3.7 mm
07:00 12.2° 1008.6 hPa 0.7 m/s 2.1 mm
13:00 14.4° 1008.6 hPa 1.2 m/s 1.1 mm
19:00 12.6° 1008.6 hPa 0.8 m/s 0.0 mm
 07:07     16:24    Daglengte: 9:17 Zondag 13 Dec
01:00 12.0° 1009.0 hPa 0.9 m/s 1.2 mm
07:00 11.4° 1008.9 hPa 1.1 m/s 1.2 mm
13:00 14.1° 1009.8 hPa 0.4 m/s 0.5 mm
19:00 12.2° 1010.6 hPa 0.2 m/s 1.2 mm
 07:08     16:25    Daglengte: 9:17 Maandag 14 Dec
01:00 11.5° 1011.5 hPa 0.9 m/s 1.3 mm
07:00 10.9° 1011.1 hPa 0.8 m/s 2.0 mm
13:00 13.9° 1011.8 hPa 0.3 m/s 1.5 mm
19:00 12.0° 1012.5 hPa 0.8 m/s 0.7 mm
 07:09     16:25    Daglengte: 9:16 Dinsdag 15 Dec
01:00 11.4° 1013.2 hPa 0.2 m/s 0.5 mm
07:00 11.2° 1013.1 hPa 0.3 m/s 0.9 mm
13:00 14.1° 1013.8 hPa 1.0 m/s 0.7 mm
19:00 12.0° 1014.2 hPa 1.1 m/s 1.4 mm
 07:09     16:25    Daglengte: 9:16 Woensdag 16 Dec
01:00 11.7° 1014.6 hPa 0.7 m/s 1.1 mm
07:00 11.0° 1014.4 hPa 0.5 m/s 1.1 mm
13:00 13.7° 1015.2 hPa 1.3 m/s 0.8 mm
FMI Hirlam - 7.5 km EWN WRFDA - 12 km DWD ICON - 7 km GFS - 25 km Basiskaart






























































Updatetijd (Europe/Amsterdam) Resolutie Lengte Stap
FMI Hirlam 18:00, 00:00, 06:00, 12:00 7.5 km 49h 1h
EWN WRFDA 15:30, 21:30, 03:30, 09:30 12 km 73h 1h
DWD ICON 16:45, 22:45, 04:45, 10:45 7 km 75h 1h
GFS 18:45, 00:45, 06:45, 12:45 25 km 237h 3h
30+ mm
25-30 mm
20-25 mm
15-20 mm
10-15 mm
6-10 mm
4-6 mm
2-4 mm
1-2 mm
0.5-1 mm
0.2-0.5 mm
0.1-0.2 mm
30+ mm
25-30 mm
20-25 mm
15-20 mm
10-15 mm
6-10 mm
4-6 mm
2-4 mm
1-2 mm
0.5-1 mm
0.2-0.5 mm
0.1-0.2 mm
Sneeuwval
Natte sneeuw
Hagel
Vorst
30+ mm
25-30 mm
20-25 mm
15-20 mm
10-15 mm
6-10 mm
4-6 mm
2-4 mm
1-2 mm
0.5-1 mm
0.2-0.5 mm
0.1-0.2 mm
Sneeuwval
Natte sneeuw
Hagel
Vorst
Onweer
50 mm
40 mm
30 mm
26 mm
22 mm
18 mm
14 mm
10 mm
9 mm
8 mm
7 mm
6 mm
5 mm
4.5 mm
4 mm
3.5 mm
3 mm
2.5 mm
2 mm
1.5 mm
1 mm
0.8 mm
0.6 mm
0.4 mm
0.2 mm
0.05 mm
35°
30°
25°
20°
15°
10°
-5°
-10°
-15°
-20°
-25°
-30°
-35°
33> m/s
29 m/s
25 m/s
21 m/s
17 m/s
14 m/s
11 m/s
8 m/s
5 m/s
3 m/s
0 m/s
2600 J/kg
2400 J/kg
2200 J/kg
2000 J/kg
1800 J/kg
1600 J/kg
1400 J/kg
1200 J/kg
1000 J/kg
800 J/kg
600 J/kg
400 J/kg
200 J/kg
70 dBZ
65 dBZ
60 dBZ
55 dBZ
50 dBZ
45 dBZ
40 dBZ
35 dBZ
30 dBZ
25 dBZ
20 dBZ
15 dBZ
10 dBZ
5 dBZ
-1 K
-2 K
-3 K
-4 K
-5 K
-6 K
-7 K
-8 K
-9 K
950 m²/s²
900 m²/s²
850 m²/s²
800 m²/s²
750 m²/s²
700 m²/s²
650 m²/s²
600 m²/s²
550 m²/s²
500 m²/s²
450 m²/s²
400 m²/s²
350 m²/s²
300 m²/s²
250 m²/s²
200 m²/s²
150 m²/s²
100 m²/s²
46 m/s
44 m/s
42 m/s
40 m/s
38 m/s
36 m/s
34 m/s
32 m/s
30 m/s
28 m/s
26 m/s
24 m/s
22 m/s
20 m/s
16 m/s
12 m/s
8 m/s
4 m/s
30 m/s
28 m/s
26 m/s
24 m/s
22 m/s
20 m/s
18 m/s
16 m/s
14 m/s
12 m/s
10 m/s
8 m/s
6 m/s
4 m/s
2 m/s
3.0
2.8
2.6
2.4
2.2
2.0
1.8
1.6
1.4
1.2
1.0
0.8
0.6
0.4
0.2
15
14
13
12
11
10
9
8
7
6
5
4
3
2
1
90%
80%
70%
60%
50%
40%
30%
20%
10%
42
40
38
36
34
32
30
28
26
24
22
20
18
16
14
12
90+ cm
80-90 cm
70-80 cm
60-70 cm
50-60 cm
40-50 cm
30-40 cm
20-30 cm
10-20 cm
1-10 cm
Sneeuwval
Natte sneeuw
Regen
>120 mm
115 mm
110 mm
105 mm
100 mm
95 mm
90 mm
85 mm
80 mm
75 mm
70 mm
65 mm
60 mm
55 mm
50 mm
45 mm
45 mm
40 mm
35 mm
30 mm
25 mm
20 mm
15 mm
10 mm
5 mm
0.1 mm
960 hPa
880 hPa
800 hPa
720 hPa
640 hPa
560 hPa
584 gpdm
568 gpdm
552 gpdm
536 gpdm
520 gpdm
504 gpdm
488 gpdm
Extreem zwaar Noodweer Kans op onweer
15% 15% 5% 50% 15%

Dag




Kaart






35°
30°
25°
20°
15°
10°
-5°
-10°
-15°
-20°
-25°
-30°
-35°
33> m/s
29 m/s
25 m/s